Time,TemperatureF,DewpointF,PressureIn,WindDirection,WindDirectionDegrees,WindSpeedMPH,WindSpeedGustMPH,Humidity,HourlyPrecipIn,Conditions,Clouds,dailyrainin,SoftwareType,DateUTC
2014-04-23 00:21:00,64.0,50.0,29.74,North,360,7.0,18.0,60,0.00,,,-99.99,,2014-04-23 07:21:00,
2014-04-23 00:52:00,63.0,49.0,29.75,West,263,10.0,21.0,61,0.00,,,-99.99,,2014-04-23 07:52:00,
2014-04-23 01:22:00,63.0,50.0,29.74,NNW,343,8.0,19.0,62,0.00,,,-99.99,,2014-04-23 08:22:00,
2014-04-23 01:52:00,63.0,49.0,29.74,NE,51,7.0,18.0,61,0.00,,,-99.99,,2014-04-23 08:52:00,
2014-04-23 02:22:00,62.0,49.0,29.73,NW,308,10.0,24.0,62,0.00,,,-99.99,,2014-04-23 09:22:00,
2014-04-23 02:54:00,62.0,49.0,29.74,WSW,252,11.0,26.0,62,0.00,,,-99.99,,2014-04-23 09:54:00,
2014-04-23 03:23:00,62.0,49.0,29.74,SSW,203,10.0,25.0,63,0.00,,,-99.99,,2014-04-23 10:23:00,
2014-04-23 03:53:00,62.0,49.0,29.74,NNW,336,10.0,24.0,62,0.00,,,-99.99,,2014-04-23 10:53:00,
2014-04-23 04:22:00,62.0,49.0,29.75,NNE,33,10.0,24.0,63,0.00,,,-99.99,,2014-04-23 11:22:00,
2014-04-23 04:52:00,61.0,49.0,29.75,West,278,10.0,25.0,64,0.00,,,-99.99,,2014-04-23 11:52:00,
2014-04-23 05:22:00,61.0,49.0,29.77,ENE,67,10.0,29.0,65,0.00,,,-99.99,,2014-04-23 12:22:00,
2014-04-23 05:52:00,61.0,48.0,29.77,NNW,335,10.0,18.0,62,0.00,,,-99.99,,2014-04-23 12:52:00,
2014-04-23 06:22:00,61.0,47.0,29.79,North,349,9.0,23.0,61,0.00,,,-99.99,,2014-04-23 13:22:00,
2014-04-23 06:52:00,61.0,47.0,29.81,WNW,301,12.0,24.0,59,0.00,,,-99.99,,2014-04-23 13:52:00,
2014-04-23 07:22:00,62.0,46.0,29.83,WNW,285,10.0,22.0,56,0.00,,,-99.99,,2014-04-23 14:22:00,
2014-04-23 07:52:00,63.0,47.0,29.84,NNW,338,5.0,13.0,55,0.00,,,-99.99,,2014-04-23 14:52:00,
2014-04-23 08:21:00,65.0,47.0,29.85,WNW,300,9.0,19.0,52,0.00,,,-99.99,,2014-04-23 15:21:00,
2014-04-23 08:53:00,66.0,47.0,29.85,West,278,8.0,19.0,50,0.00,,,-99.99,,2014-04-23 15:53:00,
2014-04-23 09:23:00,67.0,46.0,29.86,WNW,294,9.0,19.0,46,0.00,,,-99.99,,2014-04-23 16:23:00,
2014-04-23 09:53:00,69.0,47.0,29.87,North,352,7.0,16.0,45,0.00,,,-99.99,,2014-04-23 16:53:00,
2014-04-23 10:24:00,71.0,45.0,29.87,West,271,7.0,12.0,40,0.00,,,-99.99,,2014-04-23 17:24:00,
2014-04-23 10:52:00,75.0,42.0,29.88,NW,321,4.0,10.0,31,0.00,,,-99.99,,2014-04-23 17:52:00,
2014-04-23 11:22:00,77.0,42.0,29.88,NW,305,3.0,8.0,29,0.00,,,-99.99,,2014-04-23 18:22:00,
2014-04-23 12:22:00,79.0,38.0,29.87,WSW,257,1.0,6.0,23,0.00,,,-99.99,,2014-04-23 19:22:00,
2014-04-23 13:52:00,83.0,32.0,29.85,WNW,283,4.0,7.0,16,0.00,,,-99.99,,2014-04-23 20:52:00,